EJU39EW LFMN-LICJ

Flight info

Callsign EJU39EW
Flight time N/A
Altitude 33000
Route SODRI DCT RAPUR DCT RATAP DCT BTA/N0440F390 DCT DOKAR DCT SUNEV DCT NEMIT DCT TINTO DCT RUVIP DCT RONAB DCT GIANO
Aircraft A20N/M-SDE2E3FGHIRWXY/LB1

Departure

Time N/A
Airport Nice-Côte d'Azur Airport (LFMN)

Arrival

Time 2026-05-03 20:41
Airport Falcone–Borsellino Airport (LICJ)
Time Latitude Longitude Altitude Speed Heading
2026-05-03 20:15 39.63049 12.04242 28436 ft 448 kts 160°
2026-05-03 20:15 39.60184 12.05784 28070 ft 445 kts 160°
2026-05-03 20:15 39.57338 12.07314 27711 ft 441 kts 160°
2026-05-03 20:15 39.54513 12.08832 27351 ft 438 kts 160°
2026-05-03 20:16 39.51704 12.10339 27000 ft 436 kts 160°
2026-05-03 20:16 39.48911 12.11836 26647 ft 433 kts 160°
2026-05-03 20:16 39.46172 12.13303 26305 ft 430 kts 160°
2026-05-03 20:16 39.43414 12.14780 25966 ft 428 kts 160°
2026-05-03 20:17 39.40673 12.16245 25626 ft 425 kts 160°
2026-05-03 20:17 39.37957 12.17697 25294 ft 422 kts 160°
2026-05-03 20:17 39.35250 12.19142 24967 ft 420 kts 160°
2026-05-03 20:17 39.32559 12.20578 24634 ft 417 kts 160°
2026-05-03 20:18 39.29882 12.22005 24314 ft 415 kts 160°
2026-05-03 20:18 39.27220 12.23422 23999 ft 413 kts 160°
2026-05-03 20:18 39.24573 12.24831 23669 ft 410 kts 160°
2026-05-03 20:18 39.21942 12.26229 23286 ft 408 kts 160°
2026-05-03 20:19 39.19327 12.27619 22914 ft 405 kts 160°
2026-05-03 20:19 39.16728 12.28998 22543 ft 403 kts 160°
2026-05-03 20:19 39.14140 12.30371 22176 ft 401 kts 160°
2026-05-03 20:19 39.11565 12.31735 21815 ft 399 kts 159°
2026-05-03 20:20 39.09003 12.33092 21458 ft 397 kts 159°
2026-05-03 20:20 39.06454 12.34441 21107 ft 395 kts 159°
2026-05-03 20:20 39.03919 12.35781 20759 ft 393 kts 159°
2026-05-03 20:20 39.01395 12.37114 20417 ft 391 kts 159°
2026-05-03 20:21 38.98884 12.38439 20078 ft 389 kts 159°
2026-05-03 20:21 38.96390 12.39754 19743 ft 387 kts 159°
2026-05-03 20:21 38.93902 12.41065 19411 ft 385 kts 159°
2026-05-03 20:21 38.91426 12.42369 19079 ft 384 kts 159°
2026-05-03 20:22 38.88973 12.43699 18754 ft 382 kts 154°
2026-05-03 20:22 38.86760 12.45570 18428 ft 381 kts 139°
2026-05-03 20:22 38.84977 12.48067 18057 ft 379 kts 126°
2026-05-03 20:22 38.83427 12.50789 17691 ft 376 kts 126°
2026-05-03 20:23 38.81889 12.53484 17323 ft 373 kts 126°
2026-05-03 20:23 38.80357 12.56157 16964 ft 371 kts 126°
2026-05-03 20:23 38.78835 12.58807 16609 ft 368 kts 126°
2026-05-03 20:23 38.77322 12.61435 16257 ft 365 kts 126°
2026-05-03 20:24 38.75822 12.64038 15910 ft 363 kts 126°
2026-05-03 20:24 38.74328 12.66628 15568 ft 360 kts 126°
2026-05-03 20:24 38.72841 12.69202 15226 ft 358 kts 126°
2026-05-03 20:24 38.71366 12.71755 14890 ft 355 kts 126°
2026-05-03 20:25 38.69901 12.74291 14564 ft 353 kts 126°
2026-05-03 20:25 38.68442 12.76811 14229 ft 351 kts 126°
2026-05-03 20:25 38.66997 12.79307 13892 ft 348 kts 126°
2026-05-03 20:25 38.65557 12.81793 13525 ft 347 kts 126°
2026-05-03 20:26 38.64148 12.84222 13164 ft 342 kts 126°
2026-05-03 20:26 38.62742 12.86645 12801 ft 336 kts 126°
2026-05-03 20:26 38.61360 12.89025 12445 ft 330 kts 126°
2026-05-03 20:26 38.60012 12.91345 12088 ft 320 kts 126°
2026-05-03 20:27 38.58703 12.93597 11740 ft 311 kts 126°
2026-05-03 20:27 38.57429 12.95787 11392 ft 303 kts 126°
2026-05-03 20:27 38.56187 12.97919 11047 ft 295 kts 126°
2026-05-03 20:27 38.54973 13.00003 10680 ft 289 kts 126°
2026-05-03 20:28 38.53852 13.02102 10327 ft 283 kts 118°
2026-05-03 20:28 38.53034 13.04356 9961 ft 277 kts 112°
2026-05-03 20:28 38.52271 13.06593 9568 ft 272 kts 113°
2026-05-03 20:28 38.51511 13.08798 9114 ft 270 kts 113°
2026-05-03 20:29 38.50930 13.11056 8644 ft 267 kts 94°
2026-05-03 20:29 38.51172 13.13346 8192 ft 259 kts 66°
2026-05-03 20:29 38.52221 13.15159 7749 ft 254 kts 37°
2026-05-03 20:29 38.53755 13.16180 7439 ft 247 kts 20°
2026-05-03 20:30 38.55364 13.16880 7177 ft 241 kts 18°
2026-05-03 20:30 38.56925 13.17549 7026 ft 232 kts 20°
2026-05-03 20:30 38.58461 13.18280 6917 ft 237 kts 22°
2026-05-03 20:30 38.59985 13.19079 6793 ft 236 kts 23°
2026-05-03 20:31 38.61483 13.19908 6674 ft 235 kts 24°
2026-05-03 20:31 38.62881 13.20951 6542 ft 233 kts 46°
2026-05-03 20:31 38.63690 13.22704 6415 ft 231 kts 78°
2026-05-03 20:31 38.63648 13.24719 6297 ft 229 kts 110°
2026-05-03 20:32 38.62827 13.26437 6171 ft 228 kts 137°
2026-05-03 20:32 38.61473 13.27373 6048 ft 227 kts 169°
2026-05-03 20:32 38.59890 13.27397 5908 ft 229 kts 184°
2026-05-03 20:32 38.58305 13.27242 5715 ft 227 kts 184°
2026-05-03 20:33 38.56763 13.27084 5546 ft 219 kts 184°
2026-05-03 20:33 38.55264 13.26929 5379 ft 212 kts 184°
2026-05-03 20:33 38.53778 13.26773 5259 ft 216 kts 184°
2026-05-03 20:33 38.52285 13.26616 5136 ft 214 kts 184°
2026-05-03 20:34 38.50804 13.26460 5030 ft 213 kts 184°
2026-05-03 20:34 38.49328 13.26304 4996 ft 213 kts 184°
2026-05-03 20:34 38.47859 13.26019 4996 ft 214 kts 194°
2026-05-03 20:34 38.46445 13.25406 4994 ft 215 kts 201°
2026-05-03 20:35 38.45071 13.24640 4996 ft 215 kts 203°
2026-05-03 20:35 38.43704 13.23857 4992 ft 215 kts 202°
2026-05-03 20:35 38.42344 13.23087 4986 ft 210 kts 202°
2026-05-03 20:35 38.41038 13.22347 4859 ft 201 kts 202°
2026-05-03 20:36 38.39799 13.21645 4639 ft 186 kts 202°
2026-05-03 20:36 38.38591 13.20962 4379 ft 193 kts 202°
2026-05-03 20:36 38.37376 13.20274 4113 ft 190 kts 202°
2026-05-03 20:36 38.36171 13.19593 3858 ft 189 kts 202°
2026-05-03 20:37 38.34971 13.18914 3597 ft 188 kts 202°
2026-05-03 20:37 38.33777 13.18239 3353 ft 188 kts 203°
2026-05-03 20:37 38.32585 13.17565 3093 ft 187 kts 202°
2026-05-03 20:37 38.31402 13.16897 2847 ft 185 kts 202°
2026-05-03 20:38 38.30226 13.16232 2596 ft 182 kts 203°
2026-05-03 20:38 38.29117 13.15605 2359 ft 166 kts 202°
2026-05-03 20:38 38.28101 13.15032 2141 ft 156 kts 202°
2026-05-03 20:38 38.27091 13.14463 1933 ft 158 kts 202°
2026-05-03 20:39 38.26105 13.13906 1727 ft 149 kts 202°
2026-05-03 20:39 38.25189 13.13389 1525 ft 143 kts 202°
2026-05-03 20:39 38.24276 13.12874 1334 ft 143 kts 202°
2026-05-03 20:39 38.23363 13.12359 1140 ft 144 kts 202°
2026-05-03 20:40 38.22466 13.11848 978 ft 140 kts 204°
2026-05-03 20:40 38.21579 13.11329 851 ft 140 kts 203°
2026-05-03 20:40 38.20685 13.10847 716 ft 139 kts 202°
2026-05-03 20:40 38.19801 13.10349 516 ft 138 kts 204°
2026-05-03 20:41 38.18930 13.09853 240 ft 137 kts 202°
2026-05-03 20:41 38.18075 13.09383 47 ft 134 kts 204°
2026-05-03 20:41 38.17384 13.08997 42 ft 64 kts 204°
2026-05-03 20:41 38.17054 13.08808 47 ft 17 kts 219°
2026-05-03 20:42 38.17068 13.08726 47 ft 12 kts 309°
2026-05-03 20:42 38.17144 13.08645 46 ft 16 kts 325°
2026-05-03 20:42 38.17250 13.08634 43 ft 16 kts 34°
2026-05-03 20:42 38.17368 13.08680 42 ft 20 kts 18°
2026-05-03 20:43 38.17501 13.08738 39 ft 21 kts 21°
2026-05-03 20:43 38.17603 13.08825 42 ft 15 kts 35°
2026-05-03 20:43 38.17696 13.08910 41 ft 18 kts 36°
2026-05-03 20:43 38.17771 13.09050 41 ft 21 kts 67°
2026-05-03 20:44 38.17828 13.09231 41 ft 23 kts 70°
2026-05-03 20:44 38.17895 13.09427 41 ft 26 kts 66°
2026-05-03 20:44 38.17966 13.09641 43 ft 27 kts 66°
2026-05-03 20:44 38.18043 13.09860 45 ft 27 kts 66°
2026-05-03 20:45 38.18117 13.10078 47 ft 27 kts 66°
2026-05-03 20:45 38.18186 13.10285 49 ft 17 kts 67°
2026-05-03 20:45 38.18260 13.10368 49 ft 14 kts 355°
2026-05-03 20:45 38.18316 13.10433 49 ft 13 kts 66°
2026-05-03 20:46 38.18386 13.10501 49 ft 14 kts 19°
2026-05-03 20:46 38.18447 13.10523 49 ft 9 kts 359°
2026-05-03 20:46 38.18493 13.10493 45 ft 0 kts 335°
2026-05-03 20:46 38.18497 13.10491 46 ft 0 kts 335°